When you browse on this site, cookies collect data to enhance your experience and personalize the content and advertising you see.
Visit our Privacy Policy to learn more. By continuing to use the site, you agree to this use of cookies and data.
  • Em Portugal
  • Lista de países
  • Para 7 dias
  • Temperatura da água
  • Mapa do tempo
  • Widgets de tempo
  • user-avatar
    Iniciar Sessão

    Previsão horária em Sabha

    Hoje, 1 Abril, Quarta-feira

    Tempo Temperatura Precipitação Vento Pressão Humidade
    00:00 +20°C° 0 mm 5 m/s 723 mmHg 21%
    01:00 +20°C° 0 mm 5 m/s 723 mmHg 21%
    02:00 +19°C° 0 mm 5 m/s 723 mmHg 22%
    03:00 +19°C° 0 mm 5 m/s 723 mmHg 22%
    04:00 +17°C° 0 mm 5 m/s 723 mmHg 22%
    05:00 +17°C° 0 mm 5 m/s 723 mmHg 23%
    06:00 +17°C° 0 mm 5 m/s 723 mmHg 24%
    07:00 +17°C° 0 mm 5 m/s 724 mmHg 25%
    08:00 +20°C° 0 mm 6 m/s 724 mmHg 23%
    09:00 +22°C° 0 mm 6 m/s 724 mmHg 21%
    10:00 +24°C° 0 mm 6 m/s 724 mmHg 19%
    11:00 +26°C° 0 mm 5 m/s 724 mmHg 18%
    12:00 +28°C° 0 mm 4 m/s 723 mmHg 17%
    13:00 +29°C° 0 mm 3 m/s 723 mmHg 16%
    14:00 +30°C° 0 mm 3 m/s 723 mmHg 15%
    15:00 +31°C° 0 mm 3 m/s 722 mmHg 14%
    16:00 +31°C° 0 mm 2 m/s 722 mmHg 14%
    17:00 +30°C° 0 mm 3 m/s 721 mmHg 15%
    18:00 +29°C° 0 mm 3 m/s 721 mmHg 16%
    19:00 +28°C° 0 mm 4 m/s 721 mmHg 17%
    20:00 +27°C° 0 mm 4 m/s 722 mmHg 18%
    21:00 +26°C° 0 mm 4 m/s 722 mmHg 19%
    22:00 +25°C° 0 mm 4 m/s 722 mmHg 20%
    23:00 +25°C° 0 mm 4 m/s 722 mmHg 21%

    Amanhã, 2 Abril, Quinta-feira

    Tempo Temperatura Precipitação Vento Pressão Humidade
    00:00 +23°C° 0 mm 4 m/s 722 mmHg 21%
    01:00 +22°C° 0 mm 3 m/s 721 mmHg 22%
    02:00 +21°C° 0 mm 3 m/s 721 mmHg 23%
    03:00 +21°C° 0 mm 3 m/s 721 mmHg 25%
    04:00 +20°C° 0 mm 3 m/s 721 mmHg 26%
    05:00 +20°C° 0 mm 3 m/s 721 mmHg 27%
    06:00 +20°C° 0 mm 4 m/s 721 mmHg 28%
    07:00 +20°C° 0 mm 4 m/s 721 mmHg 28%
    08:00 +22°C° 0 mm 5 m/s 722 mmHg 25%
    09:00 +24°C° 0 mm 6 m/s 722 mmHg 21%
    10:00 +28°C° 0 mm 7 m/s 723 mmHg 17%
    11:00 +30°C° 0 mm 6 m/s 722 mmHg 15%
    12:00 +32°C° 0 mm 6 m/s 722 mmHg 14%
    13:00 +34°C° 0 mm 6 m/s 721 mmHg 12%
    14:00 +35°C° 0 mm 5 m/s 720 mmHg 11%
    15:00 +35°C° 0 mm 5 m/s 720 mmHg 10%
    16:00 +35°C° 0 mm 5 m/s 719 mmHg 9%
    17:00 +34°C° 0 mm 4 m/s 719 mmHg 10%
    18:00 +31°C° 0 mm 3 m/s 719 mmHg 11%
    19:00 +30°C° 0 mm 2 m/s 719 mmHg 11%
    20:00 +30°C° 0 mm 3 m/s 719 mmHg 11%
    21:00 +29°C° 0 mm 4 m/s 719 mmHg 11%
    22:00 +29°C° 0 mm 4 m/s 719 mmHg 11%
    23:00 +28°C° 0 mm 5 m/s 719 mmHg 12%

    Depois de amanhã, 3 Abril, Sexta-feira

    Tempo Temperatura Precipitação Vento Pressão Humidade
    00:00 +28°C° 0 mm 5 m/s 718 mmHg 12%
    01:00 +27°C° 0 mm 5 m/s 718 mmHg 12%
    02:00 +26°C° 0 mm 6 m/s 718 mmHg 13%
    03:00 +24°C° 0 mm 6 m/s 717 mmHg 14%
    04:00 +24°C° 0 mm 7 m/s 717 mmHg 15%
    05:00 +24°C° 0 mm 7 m/s 717 mmHg 16%
    06:00 +23°C° 0 mm 7 m/s 717 mmHg 16%
    07:00 +23°C° 0 mm 7 m/s 718 mmHg 16%
    08:00 +27°C° 0 mm 8 m/s 718 mmHg 14%
    09:00 +31°C° 0 mm 9 m/s 718 mmHg 12%
    10:00 +33°C° 0 mm 9 m/s 718 mmHg 9%
    11:00 +35°C° 0 mm 8 m/s 718 mmHg 8%
    12:00 +38°C° 0 mm 7 m/s 717 mmHg 7%
    13:00 +40°C° 0 mm 7 m/s 717 mmHg 5%
    14:00 +40°C° 0 mm 7 m/s 716 mmHg 5%
    15:00 +40°C° 0 mm 7 m/s 716 mmHg 5%
    16:00 +40°C° 0 mm 7 m/s 715 mmHg 5%
    17:00 +37°C° 0 mm 5 m/s 715 mmHg 6%
    18:00 +35°C° 0 mm 4 m/s 715 mmHg 7%
    19:00 +32°C° 0 mm 2 m/s 715 mmHg 8%
    20:00 +31°C° 0 mm 2 m/s 715 mmHg 9%
    21:00 +30°C° 0 mm 2 m/s 715 mmHg 10%
    22:00 +29°C° 0 mm 1 m/s 715 mmHg 10%
    23:00 +29°C° 0 mm 2 m/s 715 mmHg 10%

    4 Abril, Sábado

    Tempo Temperatura Precipitação Vento Pressão Humidade
    00:00 +29°C° 0 mm 3 m/s 715 mmHg 10%
    01:00 +29°C° 0 mm 4 m/s 715 mmHg 10%
    02:00 +27°C° 0 mm 4 m/s 716 mmHg 12%
    03:00 +26°C° 0 mm 5 m/s 716 mmHg 15%
    04:00 +25°C° 0 mm 5 m/s 716 mmHg 17%
    05:00 +23°C° 0 mm 6 m/s 716 mmHg 20%
    06:00 +23°C° 0 mm 6 m/s 717 mmHg 23%
    07:00 +22°C° 0 mm 7 m/s 718 mmHg 26%
    08:00 +23°C° 0 mm 7 m/s 719 mmHg 28%
    09:00 +24°C° 0 mm 7 m/s 719 mmHg 29%
    10:00 +26°C° 0 mm 7 m/s 720 mmHg 31%
    11:00 +27°C° 0 mm 7 m/s 720 mmHg 28%
    12:00 +28°C° 0 mm 8 m/s 720 mmHg 25%
    13:00 +29°C° 0 mm 8 m/s 720 mmHg 21%
    14:00 +29°C° 0 mm 8 m/s 720 mmHg 19%
    15:00 +31°C° 0 mm 8 m/s 720 mmHg 16%
    16:00 +30°C° 0 mm 7 m/s 720 mmHg 14%
    17:00 +29°C° 0 mm 6 m/s 721 mmHg 14%
    18:00 +28°C° 0 mm 5 m/s 721 mmHg 15%
    19:00 +27°C° 0 mm 5 m/s 721 mmHg 16%
    20:00 +25°C° 0 mm 5 m/s 722 mmHg 19%
    21:00 +23°C° 0 mm 6 m/s 723 mmHg 22%
    22:00 +22°C° 0 mm 7 m/s 723 mmHg 25%
    23:00 +21°C° 0 mm 7 m/s 723 mmHg 31%

    5 Abril, Domingo

    Tempo Temperatura Precipitação Vento Pressão Humidade
    00:00 +20°C° 0 mm 7 m/s 723 mmHg 38%
    01:00 +18°C° 0 mm 8 m/s 723 mmHg 44%
    02:00 +17°C° 0 mm 7 m/s 723 mmHg 50%
    03:00 +16°C° 0 mm 7 m/s 723 mmHg 56%
    04:00 +15°C° 0 mm 7 m/s 723 mmHg 62%
    05:00 +15°C° 0 mm 7 m/s 723 mmHg 63%
    06:00 +14°C° 0 mm 6 m/s 724 mmHg 63%
    07:00 +14°C° 0 mm 6 m/s 724 mmHg 64%
    08:00 +16°C° 0 mm 6 m/s 725 mmHg 56%
    09:00 +17°C° 0 mm 6 m/s 725 mmHg 49%
    10:00 +20°C° 0 mm 6 m/s 725 mmHg 41%
    11:00 +21°C° 0 mm 5 m/s 725 mmHg 36%
    12:00 +23°C° 0 mm 5 m/s 724 mmHg 31%
    13:00 +25°C° 0 mm 5 m/s 724 mmHg 26%
    14:00 +26°C° 0 mm 5 m/s 723 mmHg 24%
    15:00 +26°C° 0 mm 5 m/s 723 mmHg 22%
    16:00 +27°C° 0 mm 5 m/s 722 mmHg 21%
    17:00 +26°C° 0 mm 5 m/s 722 mmHg 22%
    18:00 +25°C° 0 mm 5 m/s 723 mmHg 23%
    19:00 +23°C° 0 mm 5 m/s 723 mmHg 24%
    20:00 +23°C° 0 mm 5 m/s 723 mmHg 24%
    21:00 +22°C° 0 mm 6 m/s 724 mmHg 25%
    22:00 +22°C° 0 mm 7 m/s 724 mmHg 25%
    23:00 +21°C° 0 mm 7 m/s 724 mmHg 28%

    6 Abril, Segunda-feira

    Tempo Temperatura Precipitação Vento Pressão Humidade
    00:00 +20°C° 0 mm 7 m/s 724 mmHg 30%
    01:00 +20°C° 0 mm 7 m/s 723 mmHg 32%
    02:00 +18°C° 0 mm 7 m/s 724 mmHg 34%
    03:00 +17°C° 0 mm 7 m/s 724 mmHg 37%
    04:00 +17°C° 0 mm 6 m/s 724 mmHg 39%
    05:00 +17°C° 0 mm 7 m/s 724 mmHg 41%
    06:00 +16°C° 0 mm 7 m/s 725 mmHg 44%
    07:00 +16°C° 0 mm 7 m/s 725 mmHg 46%
    08:00 +18°C° 0 mm 7 m/s 726 mmHg 42%
    09:00 +20°C° 0 mm 7 m/s 726 mmHg 38%
    10:00 +22°C° 0 mm 7 m/s 726 mmHg 34%
    11:00 +23°C° 0 mm 7 m/s 726 mmHg 30%
    12:00 +24°C° 0 mm 6 m/s 726 mmHg 27%
    13:00 +27°C° 0 mm 6 m/s 726 mmHg 24%
    14:00 +27°C° 0 mm 6 m/s 725 mmHg 22%
    15:00 +27°C° 0 mm 7 m/s 725 mmHg 21%
    16:00 +27°C° 0 mm 7 m/s 724 mmHg 19%
    17:00 +26°C° 0 mm 6 m/s 725 mmHg 20%
    18:00 +25°C° 0 mm 5 m/s 725 mmHg 21%
    19:00 +23°C° 0 mm 5 m/s 725 mmHg 22%
    20:00 +22°C° 0 mm 5 m/s 726 mmHg 24%
    21:00 +22°C° 0 mm 6 m/s 726 mmHg 26%
    22:00 +21°C° 0 mm 6 m/s 727 mmHg 28%
    23:00 +20°C° 0 mm 6 m/s 727 mmHg 29%
    Mostrar mais